OBJECT B

Satellite information

Favourite Embed

Satellite Type and Status

UNKNOWNIN ORBIT

Key statistics

Satellite OBJECT B at a glance.

Uptime

232

Days in orbit

Revolutions

≈ 15.1

Per day

Orbit

SSO

Sun Synchronous Orbit

Inclination

97.6

Latest

Satellite identification and parameters

Extended collection of information and parameters for OBJECT B.

Object identification

Identified? True

Debris? False

Object name: OBJECT B

International designator: 2025-013B

Object number (NORAD): 62730

Object ID (CCSDS): 62730

Country: PEOPLES REPUBLIC OF CHINA (PRC)

Current information (Y/N): Y

RCS size: MEDIUM

Orbital parameters

Period: 95.467 minutes

Inclination: 97.6343 deg

SMA: 6919.308 km

Apoapsis: 549.97 km

Periapsis: 532.376 km

RAAN: 56.0126 deg

Eccentricy: 0.0012714

Argument of periapsis: 254.2674 deg

Mean anomaly: 105.7152 deg

Mean motion: 15.08373067 rev/day

Mean motion (dot): 0.00004429 rev/day2

B* drag term: 0.00028859721 1/REarth

Two-line elements (TLE)

Creation date: Sept. 8, 2025, 3:16 a.m.

Reference frame: TEME

Reference center: EARTH

Epoch: Sept. 7, 2025, 11:36 p.m. UTC

TLE line 0: 0 OBJECT B

TLE line 1: 1 62730U 25013B 25250.98344885 .00004429 00000-0 28860-3 0 9998

TLE line 2: 2 62730 97.6343 56.0126 0012714 254.2674 105.7152 15.08373067 34746

Live tracking on map

Real-time ground track for satellite OBJECT B.

In-orbit conjunctions

There are no conjunctions computed for OBJECT B, at the moment. Check back to stay up to date, as we update our databases every day.

Go to all conjunctions

Associated space launch

Carried 5 satellites to sun synchronous orbit: * Yunyao-1 37 to 40 * Jitianxing A-05

OBJECT B was lifted into orbit during the mission ‘Ceres-1 | 5 satellites’, on board a Ceres-1 space rocket.

The launch took place on Jan. 20, 2025, 10:11 a.m. from Launch Area 95A.

For more information about the launch, click the button.

Launch to space Ceres-1 | 5 satellites
Ceres-1 | 5 satellites

Agency: N/A

Status: Launch Successful

Launch date: Jan. 20, 2025, 10:11 a.m. UTC

Rocket: Ceres-1

Launch pad: Launch Area 95A

Location: Jiuquan Satellite Launch Center, People's Republic of China

...

Latest news about this satellite

There are no fresh news available about this satellite. Check back as we update our databases every day.


Newsletter sign-up

Weekly statistics, charts and insights to help you stay on top of the space industry.